Weather History for KFRG - April, 2014

Change the Weather History Date:

Sunday, April 6, 2014

  Actual Average Record
Temperature  
Mean Temperature 44 °F -  
Max Temperature 55 °F 53 °F 64 °F (2005)
Min Temperature 34 °F 37 °F 30 °F (2007)
Degree Days  
Heating Degree Days 20    
Moisture  
Dew Point 24 °F    
Average Humidity 49    
Maximum Humidity 73    
Minimum Humidity 25    
Precipitation  
Precipitation 0.00 in - - ()
Sea Level Pressure  
Sea Level Pressure 30.17 in    
Wind  
Wind Speed 8 mph (West)    
Max Wind Speed 13 mph    
Max Gust Speed 22 mph    
Visibility 10 miles    
Events      
Averages and records for this station are not official NWS values.
T = Trace of Precipitation, MM = Missing Value Source: NWS Daily Summary

Daily Weather History Graph

Daily Weather History Graph

Search for Another Location

Airport or City:

Trip Planner

Search our weather history database for the weather conditions in past years. The results will help you decide how hot, cold, wet, or windy it might be!

Date:

Astronomy

Apr. 06, 2014 Rise Set
Actual Time 6:29 AM EDT 7:23 PM EDT
Civil Twilight 6:01 AM EDT 7:51 PM EDT
Nautical Twilight 5:28 AM EDT 8:24 PM EDT
Astronomical Twilight 4:53 AM EDT 8:59 PM EDT
Moon 11:26 AM EDT 1:18 AM EDT
Length of Visible Light 13h 50m
Length of Day
12h 54m
Waxing Crescent, 43% of the Moon is Illuminated
Apr 6
Waxing Crescent
Apr 7
First Quarter
Apr 15
Full
Apr 22
Last Quarter
Apr 29
New

Hourly Weather History & Observations

Time (EDT) Temp. Windchill Dew Point Humidity Pressure Visibility Wind Dir Wind Speed Gust Speed Precip Events Conditions
12:53 AM 39.0 °F 32.3 °F 21.0 °F 49% 30.08 in 10.0 mi NW 10.4 mph 21.9 mph N/A   Clear
1:53 AM 37.9 °F 30.5 °F 21.9 °F 53% 30.08 in 10.0 mi NW 11.5 mph 19.6 mph N/A   Clear
2:53 AM 37.0 °F 30.4 °F 21.9 °F 54% 30.09 in 10.0 mi West 9.2 mph - N/A   Clear
3:53 AM 36.0 °F 30.3 °F 21.9 °F 57% 30.09 in 10.0 mi WNW 6.9 mph - N/A   Clear
4:53 AM 35.1 °F 29.3 °F 21.9 °F 59% 30.12 in 10.0 mi West 6.9 mph - N/A   Clear
5:53 AM 35.1 °F 29.3 °F 21.9 °F 59% 30.14 in 10.0 mi West 6.9 mph - N/A   Clear
6:53 AM 34.0 °F 28.0 °F 23.0 °F 64% 30.18 in 10.0 mi West 6.9 mph - N/A   Clear
7:53 AM 37.0 °F 29.8 °F 23.0 °F 57% 30.19 in 10.0 mi WNW 10.4 mph - N/A   Clear
8:53 AM 39.9 °F 35.8 °F 21.9 °F 49% 30.20 in 10.0 mi WNW 5.8 mph - N/A   Clear
9:53 AM 42.1 °F 39.2 °F 21.9 °F 45% 30.20 in 10.0 mi NNE 4.6 mph - N/A   Clear
10:53 AM 45.0 °F 41.2 °F 19.9 °F 37% 30.21 in 10.0 mi NW 6.9 mph - N/A   Clear
11:53 AM 46.9 °F - 21.0 °F 36% 30.19 in 10.0 mi West 4.6 mph - N/A   Clear
12:53 PM 50.0 °F - 19.0 °F 29% 30.18 in 10.0 mi Variable 4.6 mph - N/A   Clear
1:53 PM 51.1 °F - 18.0 °F 27% 30.18 in 10.0 mi Calm Calm - N/A   Clear
2:53 PM 53.1 °F - 18.0 °F 25% 30.19 in 10.0 mi West 9.2 mph - N/A   Clear
3:53 PM 55.0 °F - 23.0 °F 29% 30.17 in 10.0 mi Variable 4.6 mph - N/A   Clear
4:53 PM 55.9 °F - 21.9 °F 27% 30.14 in 10.0 mi SW 8.1 mph - N/A   Clear
5:53 PM 55.9 °F - 21.9 °F 27% 30.14 in 10.0 mi Variable 6.9 mph - N/A   Clear
6:53 PM 46.0 °F 41.9 °F 30.9 °F 56% 30.15 in 10.0 mi South 8.1 mph - N/A   Clear
7:53 PM 44.1 °F 40.1 °F 28.0 °F 53% 30.18 in 10.0 mi SW 6.9 mph - N/A   Clear
8:53 PM 42.1 °F 35.2 °F 32.0 °F 67% 30.25 in 10.0 mi SW 12.7 mph 20.7 mph N/A   Clear
9:53 PM 41.0 °F 37.1 °F 30.9 °F 67% 30.23 in 10.0 mi SW 5.8 mph - N/A   Clear
10:53 PM 39.9 °F 35.1 °F 32.0 °F 73% 30.22 in 10.0 mi SW 6.9 mph - N/A   Clear
11:53 PM 39.9 °F 36.7 °F 30.9 °F 70% 30.23 in 10.0 mi SW 4.6 mph - N/A   Clear